,,Stat5,,Stat1,,Stat2,,Stat3,,Stat4,,Wind1,,Wind1,
time,status,PA1M_AVG,status,PR1M_SUM,status,RH1M_AVG,status,SR1M_AVG,status,TA1M_AVG,status,W1dAve1m,status,W1sAve1m,
2000-10-20, 00:00:00,VALID,918.613,VALID,0,VALID,98.9105,VALID,0,VALID,19.2144,VALID,31,VALID,1.19629,
2000-10-20, 00:01:00,VALID,918.613,VALID,0,VALID,98.8927,VALID,-0.0169808,VALID,19.231,VALID,306,VALID,1.02068,
2000-10-20, 00:02:00,VALID,918.638,VALID,0,VALID,98.8571,VALID,0,VALID,19.2211,VALID,36,VALID,2.03289,
2000-10-20, 00:03:00,VALID,918.6,VALID,0,VALID,98.791,VALID,0,VALID,19.1853,VALID,71,VALID,1.57726,
2000-10-20, 00:04:00,VALID,918.621,VALID,0,VALID,98.7515,VALID,0,VALID,19.1823,VALID,233,VALID,0.386924,
2000-10-20, 00:05:00,VALID,918.638,VALID,0,VALID,98.7426,VALID,0,VALID,19.1659,VALID,225,VALID,1.26119,
2000-10-20, 00:06:00,VALID,918.575,VALID,0,VALID,98.6969,VALID,0,VALID,19.1431,VALID,81,VALID,2.79531,
2000-10-20, 00:07:00,VALID,918.518,VALID,0,VALID,98.7172,VALID,0,VALID,19.1473,VALID,19,VALID,1.04523,
2000-10-20, 00:08:00,VALID,918.582,VALID,0.2,VALID,98.6269,VALID,-0.0339617,VALID,19.0884,VALID,279,VALID,1.56348,
2000-10-20, 00:09:00,VALID,918.577,VALID,0,VALID,98.688,VALID,-0.0169808,VALID,19.085,VALID,141,VALID,1.22227,
2000-10-20, 00:10:00,VALID,918.565,VALID,0,VALID,98.7134,VALID,0,VALID,19.0859,VALID,91,VALID,0.780449,
2000-10-20, 00:11:00,VALID,918.541,VALID,0,VALID,98.5379,VALID,0,VALID,19.0439,VALID,133,VALID,1.76624,
2000-10-20, 00:12:00,VALID,918.521,VALID,0,VALID,98.5252,VALID,0.0169808,VALID,19.0144,VALID,307,VALID,1.86953,
2000-10-20, 00:13:00,VALID,918.505,VALID,0,VALID,98.4921,VALID,-0.0169808,VALID,18.9788,VALID,350,VALID,1.75234,
2000-10-20, 00:14:00,VALID,918.511,VALID,0,VALID,98.4705,VALID,-0.0169808,VALID,18.9597,VALID,3,VALID,1.48277,
2000-10-20, 00:15:00,VALID,918.505,VALID,0,VALID,98.5125,VALID,-0.0169808,VALID,18.9334,VALID,212,VALID,1.21711,
2000-10-20, 00:16:00,VALID,918.458,VALID,0,VALID,98.5315,VALID,0.0169808,VALID,18.9207,VALID,154,VALID,0.816406,
2000-10-20, 00:17:00,VALID,918.486,VALID,0,VALID,98.5468,VALID,0,VALID,18.9343,VALID,6,VALID,0.67832,
2000-10-20, 00:18:00,VALID,918.464,VALID,0,VALID,98.5761,VALID,0,VALID,18.9172,VALID,321,VALID,1.36959,
2000-10-20, 00:19:00,VALID,918.468,VALID,0,VALID,98.6129,VALID,0,VALID,18.9209,VALID,30,VALID,1.10321,
2000-10-20, 00:20:00,VALID,918.454,VALID,0,VALID,98.6231,VALID,0,VALID,18.9078,VALID,232,VALID,0.733008,
2000-10-20, 00:21:00,VALID,918.473,VALID,0,VALID,98.6409,VALID,0.0339617,VALID,18.9041,VALID,342,VALID,0.89707,
2000-10-20, 00:22:00,VALID,918.461,VALID,0,VALID,98.6803,VALID,0,VALID,18.905,VALID,143,VALID,1.02083,
2000-10-20, 00:23:00,VALID,918.454,VALID,0,VALID,98.7096,VALID,0,VALID,18.9083,VALID,281,VALID,0.609581,
2000-10-20, 00:24:00,VALID,918.449,VALID,0,VALID,98.7541,VALID,0,VALID,18.9179,VALID,265,VALID,0.786133,
2000-10-20, 00:25:00,VALID,918.476,VALID,0,VALID,98.7312,VALID,0,VALID,18.8986,VALID,343,VALID,2.19609,
2000-10-20, 00:26:00,VALID,918.439,VALID,0,VALID,98.7719,VALID,0,VALID,18.8757,VALID,75,VALID,1.05569,
2000-10-20, 00:27:00,VALID,918.453,VALID,0,VALID,98.8418,VALID,0.0169808,VALID,18.8914,VALID,45,VALID,1.00267,
2000-10-20, 00:28:00,VALID,918.447,VALID,0,VALID,98.8762,VALID,0,VALID,18.905,VALID,167,VALID,0.741211,
2000-10-20, 00:29:00,VALID,918.428,VALID,0,VALID,98.9105,VALID,0,VALID,18.908,VALID,142,VALID,0.767773,
2000-10-20, 00:30:00,VALID,918.381,VALID,0,VALID,98.9334,VALID,0,VALID,18.8815,VALID,70,VALID,1.9359,
2000-10-20, 00:31:00,VALID,918.357,VALID,0,VALID,98.9525,VALID,-0.0169808,VALID,18.8789,VALID,286,VALID,0.637952,
2000-10-20, 00:32:00,VALID,918.38,VALID,0,VALID,98.9753,VALID,-0.0169808,VALID,18.8822,VALID,189,VALID,1.02168,
2000-10-20, 00:33:00,VALID,918.352,VALID,0,VALID,98.9766,VALID,0,VALID,18.8792,VALID,69,VALID,1.79023,
2000-10-20, 00:34:00,VALID,918.329,VALID,0,VALID,98.9168,VALID,0.0169808,VALID,18.8275,VALID,309,VALID,1.22736,
2000-10-20, 00:35:00,VALID,918.366,VALID,0,VALID,98.9575,VALID,0,VALID,18.8372,VALID,89,VALID,1.19531,
2000-10-20, 00:36:00,VALID,918.345,VALID,0,VALID,98.9753,VALID,0.0169808,VALID,18.8404,VALID,74,VALID,2.22813,
2000-10-20, 00:37:00,VALID,918.284,VALID,0,VALID,98.9563,VALID,-0.0169808,VALID,18.8213,VALID,60,VALID,0.983398,
2000-10-20, 00:38:00,VALID,918.29,VALID,0,VALID,98.9258,VALID,0,VALID,18.8014,VALID,310,VALID,1.01603,
2000-10-20, 00:39:00,VALID,918.313,VALID,0,VALID,98.8609,VALID,0,VALID,18.7756,VALID,161,VALID,0.731908,
2000-10-20, 00:40:00,VALID,918.297,VALID,0,VALID,98.838,VALID,0,VALID,18.7599,VALID,105,VALID,1.10469,
2000-10-20, 00:41:00,VALID,918.295,VALID,0,VALID,98.8367,VALID,-0.0169808,VALID,18.7463,VALID,119,VALID,0.414648,
2000-10-20, 00:42:00,VALID,918.303,VALID,0,VALID,98.8024,VALID,0,VALID,18.7368,VALID,189,VALID,0.338942,
2000-10-20, 00:43:00,VALID,918.285,VALID,0,VALID,98.7681,VALID,0.0169808,VALID,18.7306,VALID,100,VALID,1.07381,
2000-10-20, 00:44:00,VALID,918.28,VALID,0,VALID,98.8316,VALID,0,VALID,18.7497,VALID,46,VALID,0.722266,
2000-10-20, 00:45:00,VALID,918.282,VALID,0,VALID,98.796,VALID,0.0169808,VALID,18.7368,VALID,79,VALID,0.73457,
2000-10-20, 00:46:00,VALID,918.267,VALID,0,VALID,98.8024,VALID,-0.0339617,VALID,18.7211,VALID,92,VALID,1.59495,
2000-10-20, 00:47:00,VALID,918.263,VALID,0,VALID,98.7808,VALID,-0.101885,VALID,18.7159,VALID,95,VALID,1.0185,
2000-10-20, 00:48:00,VALID,918.272,VALID,0,VALID,98.8418,VALID,-0.0849042,VALID,18.7318,VALID,311,VALID,0.237891,
2000-10-20, 00:49:00,VALID,918.266,VALID,0,VALID,98.8227,VALID,-0.0679233,VALID,18.7249,VALID,332,VALID,0.546484,
2000-10-20, 00:50:00,VALID,918.261,VALID,0,VALID,98.8266,VALID,-0.0849042,VALID,18.7119,VALID,115,VALID,0.8125,
2000-10-20, 00:51:00,VALID,918.239,VALID,0,VALID,98.8431,VALID,-0.101885,VALID,18.7152,VALID,95,VALID,1.99774,
2000-10-20, 00:52:00,VALID,918.175,VALID,0,VALID,98.777,VALID,-0.101885,VALID,18.6866,VALID,20,VALID,0.885742,
2000-10-20, 00:53:00,VALID,918.205,VALID,0,VALID,98.7706,VALID,-0.101885,VALID,18.7059,VALID,117,VALID,0.635547,
2000-10-20, 00:54:00,VALID,918.194,VALID,0,VALID,98.763,VALID,-0.0679233,VALID,18.7189,VALID,355,VALID,0.170673,
2000-10-20, 00:55:00,VALID,918.191,VALID,0,VALID,98.7554,VALID,-0.101885,VALID,18.7256,VALID,117,VALID,0.448396,
2000-10-20, 00:56:00,VALID,918.168,VALID,0,VALID,98.7274,VALID,-0.101885,VALID,18.7126,VALID,95,VALID,0.853906,
2000-10-20, 00:57:00,VALID,918.156,VALID,0,VALID,98.7592,VALID,-0.101885,VALID,18.7223,VALID,90,VALID,0.557031,
2000-10-20, 00:58:00,VALID,918.129,VALID,0,VALID,98.7592,VALID,-0.101885,VALID,18.7221,VALID,98,VALID,0.132612,
2000-10-20, 00:59:00,VALID,918.138,VALID,0,VALID,98.7274,VALID,-0.101885,VALID,18.7124,VALID,118,VALID,0.390008,
2000-10-20, 01:00:00,VALID,918.118,VALID,0,VALID,98.7452,VALID,-0.101885,VALID,18.7163,VALID,108,VALID,1.10293,
2000-10-20, 01:01:00,VALID,918.085,VALID,0,VALID,98.7846,VALID,-0.0849042,VALID,18.7221,VALID,95,VALID,1.40898,
2000-10-20, 01:02:00,VALID,918.081,VALID,0,VALID,98.7846,VALID,0,VALID,18.7112,VALID,97,VALID,1.69972,
2000-10-20, 01:03:00,VALID,918.061,VALID,0,VALID,98.7795,VALID,0,VALID,18.6983,VALID,54,VALID,0.750822,
2000-10-20, 01:04:00,VALID,918.049,VALID,0,VALID,98.7617,VALID,0.0169808,VALID,18.7018,VALID,92,VALID,0.563086,
2000-10-20, 01:05:00,VALID,918.028,VALID,0,VALID,98.7757,VALID,0,VALID,18.6953,VALID,296,VALID,0.486328,
2000-10-20, 01:06:00,VALID,918.016,VALID,0,VALID,98.7693,VALID,0.0169808,VALID,18.6884,VALID,270,VALID,0.227965,
2000-10-20, 01:07:00,VALID,917.975,VALID,0,VALID,98.7693,VALID,0.0169808,VALID,18.669,VALID,270,VALID,0.194696,
2000-10-20, 01:08:00,VALID,917.96,VALID,0,VALID,98.7935,VALID,0.0169808,VALID,18.6822,VALID,169,VALID,0.819727,
2000-10-20, 01:09:00,VALID,917.934,VALID,0,VALID,98.8571,VALID,0,VALID,18.6914,VALID,57,VALID,1.00371,
2000-10-20, 01:10:00,VALID,917.913,VALID,0,VALID,98.8914,VALID,0.0169808,VALID,18.7018,VALID,61,VALID,0.567708,
2000-10-20, 01:11:00,VALID,917.885,VALID,0,VALID,98.8978,VALID,0,VALID,18.6948,VALID,92,VALID,1.54317,
2000-10-20, 01:12:00,VALID,917.837,VALID,0,VALID,98.894,VALID,0.0169808,VALID,18.6948,VALID,42,VALID,0.604883,
2000-10-20, 01:13:00,VALID,917.821,VALID,0,VALID,98.8749,VALID,0.0169808,VALID,18.6849,VALID,94,VALID,1.33926,
2000-10-20, 01:14:00,VALID,917.778,VALID,0,VALID,98.8901,VALID,0.0169808,VALID,18.7145,VALID,91,VALID,0.86278,
2000-10-20, 01:15:00,VALID,917.747,VALID,0,VALID,98.8952,VALID,0.0169808,VALID,18.7244,VALID,90,VALID,0.984375,
2000-10-20, 01:16:00,VALID,917.728,VALID,0,VALID,98.9029,VALID,0,VALID,18.7403,VALID,87,VALID,0.321289,
2000-10-20, 01:17:00,VALID,917.684,VALID,0,VALID,98.9041,VALID,0,VALID,18.7338,VALID,90,VALID,0.675686,
2000-10-20, 01:18:00,VALID,917.684,VALID,0,VALID,98.8838,VALID,0.0169808,VALID,18.7207,VALID,86,VALID,0.753205,
2000-10-20, 01:19:00,VALID,917.657,VALID,0,VALID,98.8431,VALID,0.0169808,VALID,18.7045,VALID,91,VALID,0.781456,
2000-10-20, 01:20:00,VALID,917.643,VALID,0,VALID,98.852,VALID,0.0509425,VALID,18.7115,VALID,91,VALID,0.899414,
2000-10-20, 01:21:00,VALID,917.626,VALID,0,VALID,98.8736,VALID,0.0169808,VALID,18.7142,VALID,50,VALID,1.21504,
2000-10-20, 01:22:00,VALID,917.61,VALID,0,VALID,98.8584,VALID,0,VALID,18.7211,VALID,334,VALID,0.384615,
2000-10-20, 01:23:00,VALID,917.616,VALID,0,VALID,98.8927,VALID,0,VALID,18.7336,VALID,93,VALID,0.541735,
2000-10-20, 01:24:00,VALID,917.606,VALID,0,VALID,98.8889,VALID,0.0169808,VALID,18.7304,VALID,98,VALID,0.869336,
2000-10-20, 01:25:00,VALID,917.609,VALID,0,VALID,98.9079,VALID,0.0169808,VALID,18.7472,VALID,90,VALID,0.851953,
2000-10-20, 01:26:00,VALID,917.58,VALID,0,VALID,98.9181,VALID,0.0169808,VALID,18.753,VALID,97,VALID,1.499,
2000-10-20, 01:27:00,VALID,917.574,VALID,0,VALID,98.9054,VALID,0.0169808,VALID,18.7468,VALID,87,VALID,0.86102,
2000-10-20, 01:28:00,VALID,917.555,VALID,0,VALID,98.899,VALID,0.0339617,VALID,18.7403,VALID,97,VALID,1.1125,
2000-10-20, 01:29:00,VALID,917.506,VALID,0,VALID,98.894,VALID,0.0169808,VALID,18.7569,VALID,89,VALID,0.955664,
2000-10-20, 01:30:00,VALID,917.503,VALID,0,VALID,98.8965,VALID,0.0339617,VALID,18.7465,VALID,100,VALID,0.931691,
2000-10-20, 01:31:00,VALID,917.483,VALID,0,VALID,98.8851,VALID,-0.0169808,VALID,18.7475,VALID,100,VALID,1.15481,
2000-10-20, 01:32:00,VALID,917.469,VALID,0,VALID,98.8812,VALID,-0.0509425,VALID,18.735,VALID,110,VALID,0.34707,
2000-10-20, 01:33:00,VALID,917.457,VALID,0,VALID,98.894,VALID,-0.0679233,VALID,18.7482,VALID,100,VALID,0,
2000-10-20, 01:34:00,VALID,917.452,VALID,0,VALID,98.8889,VALID,-0.101885,VALID,18.7512,VALID,98,VALID,0,
2000-10-20, 01:35:00,VALID,917.438,VALID,0,VALID,98.8978,VALID,-0.101885,VALID,18.7708,VALID,108,VALID,0,
2000-10-20, 01:36:00,VALID,917.401,VALID,0,VALID,98.8812,VALID,-0.0849042,VALID,18.7643,VALID,108,VALID,0,
2000-10-20, 01:37:00,VALID,917.398,VALID,0,VALID,98.8965,VALID,-0.101885,VALID,18.7643,VALID,105,VALID,0,
2000-10-20, 01:38:00,VALID,917.373,VALID,0,VALID,98.8762,VALID,-0.101885,VALID,18.7775,VALID,120,VALID,0.480168,
2000-10-20, 01:39:00,VALID,917.34,VALID,0,VALID,98.8723,VALID,-0.0849042,VALID,18.7606,VALID,93,VALID,1.04605,
2000-10-20, 01:40:00,VALID,917.321,VALID,0,VALID,98.8647,VALID,-0.101885,VALID,18.774,VALID,78,VALID,0.761133,
2000-10-20, 01:41:00,VALID,917.306,VALID,0,VALID,98.8062,VALID,-0.0679233,VALID,18.7703,VALID,78,VALID,0.524023,
2000-10-20, 01:42:00,VALID,917.285,VALID,0,VALID,98.7681,VALID,-0.101885,VALID,18.7611,VALID,60,VALID,0.565304,
2000-10-20, 01:43:00,VALID,917.266,VALID,0,VALID,98.7388,VALID,-0.101885,VALID,18.7676,VALID,92,VALID,0.577508,
2000-10-20, 01:44:00,VALID,917.238,VALID,0,VALID,98.7579,VALID,-0.101885,VALID,18.7872,VALID,93,VALID,1.14395,
2000-10-20, 01:45:00,VALID,917.23,VALID,0,VALID,98.7528,VALID,-0.101885,VALID,18.7775,VALID,14,VALID,1.00566,
2000-10-20, 01:46:00,VALID,917.235,VALID,0,VALID,98.749,VALID,-0.0679233,VALID,18.7869,VALID,12,VALID,0.61278,
2000-10-20, 01:47:00,VALID,917.196,VALID,0,VALID,98.7325,VALID,-0.0169808,VALID,18.7795,VALID,90,VALID,1.67969,
2000-10-20, 01:48:00,VALID,917.174,VALID,0,VALID,98.7452,VALID,0,VALID,18.7887,VALID,82,VALID,1.65234,
2000-10-20, 01:49:00,VALID,917.184,VALID,0,VALID,98.7274,VALID,0.0169808,VALID,18.7987,VALID,38,VALID,0.422266,
2000-10-20, 01:50:00,VALID,917.176,VALID,0,VALID,98.7019,VALID,0.0339617,VALID,18.7892,VALID,221,VALID,0.358173,
2000-10-20, 01:51:00,VALID,917.168,VALID,0,VALID,98.707,VALID,0,VALID,18.7786,VALID,84,VALID,0.509046,
2000-10-20, 01:52:00,VALID,917.152,VALID,0,VALID,98.688,VALID,0.0169808,VALID,18.8118,VALID,83,VALID,0.824219,
2000-10-20, 01:53:00,VALID,917.158,VALID,0,VALID,98.6689,VALID,0.0339617,VALID,18.8243,VALID,98,VALID,1.06562,
2000-10-20, 01:54:00,VALID,917.147,VALID,0,VALID,98.6422,VALID,0.0509425,VALID,18.834,VALID,93,VALID,1.11018,
2000-10-20, 01:55:00,VALID,917.143,VALID,0,VALID,98.6536,VALID,0.0339617,VALID,18.8307,VALID,94,VALID,1.29688,
2000-10-20, 01:56:00,VALID,917.149,VALID,0,VALID,98.6676,VALID,0.0339617,VALID,18.8208,VALID,97,VALID,0.966211,
2000-10-20, 01:57:00,VALID,917.17,VALID,0,VALID,98.6841,VALID,0.0339617,VALID,18.8146,VALID,93,VALID,0.746094,
2000-10-20, 01:58:00,VALID,917.167,VALID,0,VALID,98.7108,VALID,0.0339617,VALID,18.8012,VALID,97,VALID,0.59395,
2000-10-20, 01:59:00,VALID,917.156,VALID,0,VALID,98.7337,VALID,0.0339617,VALID,18.7947,VALID,97,VALID,1.05592,
2000-10-20, 02:00:00,VALID,917.154,VALID,0,VALID,98.7871,VALID,0.0339617,VALID,18.8049,VALID,95,VALID,1.17109,
2000-10-20, 02:01:00,VALID,917.162,VALID,0,VALID,98.8011,VALID,-0.0169808,VALID,18.8024,VALID,96,VALID,0.689258,
2000-10-20, 02:02:00,VALID,917.154,VALID,0,VALID,98.7846,VALID,-0.0849042,VALID,18.7775,VALID,90,VALID,1.24119,
2000-10-20, 02:03:00,VALID,917.126,VALID,0,VALID,98.8227,VALID,-0.101885,VALID,18.7678,VALID,87,VALID,0.733964,
2000-10-20, 02:04:00,VALID,917.124,VALID,0,VALID,98.8367,VALID,-0.0679233,VALID,18.7613,VALID,359,VALID,0.441211,
2000-10-20, 02:05:00,VALID,917.125,VALID,0,VALID,98.8673,VALID,-0.0679233,VALID,18.7516,VALID,177,VALID,0.144922,
2000-10-20, 02:06:00,VALID,917.122,VALID,0,VALID,98.8685,VALID,-0.0849042,VALID,18.7419,VALID,105,VALID,0.103165,
2000-10-20, 02:07:00,VALID,917.14,VALID,0,VALID,98.8736,VALID,-0.0679233,VALID,18.732,VALID,100,VALID,0,
2000-10-20, 02:08:00,VALID,917.152,VALID,0,VALID,98.8927,VALID,-0.101885,VALID,18.7295,VALID,38,VALID,0,
2000-10-20, 02:09:00,VALID,917.177,VALID,0,VALID,98.9054,VALID,-0.0679233,VALID,18.7357,VALID,300,VALID,0.0216797,
2000-10-20, 02:10:00,VALID,917.178,VALID,0,VALID,98.9461,VALID,-0.0509425,VALID,18.7226,VALID,158,VALID,0.228165,
2000-10-20, 02:11:00,VALID,917.184,VALID,0,VALID,98.9804,VALID,-0.0849042,VALID,18.7318,VALID,86,VALID,0.283923,
2000-10-20, 02:12:00,VALID,917.199,VALID,0,VALID,98.9919,VALID,-0.0679233,VALID,18.738,VALID,77,VALID,0,
2000-10-20, 02:13:00,VALID,917.194,VALID,0,VALID,99.0249,VALID,-0.0849042,VALID,18.7484,VALID,77,VALID,0,
2000-10-20, 02:14:00,VALID,917.192,VALID,0.2,VALID,99.0491,VALID,-0.101885,VALID,18.7581,VALID,90,VALID,0.0707131,
2000-10-20, 02:15:00,VALID,917.189,VALID,0,VALID,99.0415,VALID,-0.101885,VALID,18.7583,VALID,93,VALID,0,
2000-10-20, 02:16:00,VALID,917.168,VALID,0,VALID,99.0504,VALID,-0.0509425,VALID,18.7482,VALID,89,VALID,0,
2000-10-20, 02:17:00,VALID,917.176,VALID,0,VALID,99.0491,VALID,-0.0849042,VALID,18.7611,VALID,93,VALID,0,
2000-10-20, 02:18:00,VALID,917.16,VALID,0,VALID,99.0453,VALID,-0.0849042,VALID,18.7606,VALID,77,VALID,0,
2000-10-20, 02:19:00,VALID,917.179,VALID,0,VALID,99.0415,VALID,-0.101885,VALID,18.7742,VALID,98,VALID,0,
2000-10-20, 02:20:00,VALID,917.171,VALID,0,VALID,99.0338,VALID,-0.0679233,VALID,18.78,VALID,65,VALID,0,
2000-10-20, 02:21:00,VALID,917.176,VALID,0,VALID,99.0071,VALID,-0.0849042,VALID,18.777,VALID,81,VALID,0,
2000-10-20, 02:22:00,VALID,917.16,VALID,0,VALID,99.0109,VALID,-0.101885,VALID,18.7971,VALID,96,VALID,0,
2000-10-20, 02:23:00,VALID,917.145,VALID,0,VALID,98.9944,VALID,-0.0849042,VALID,18.813,VALID,86,VALID,0,
2000-10-20, 02:24:00,VALID,917.171,VALID,0,VALID,98.9919,VALID,-0.101885,VALID,18.8162,VALID,91,VALID,0,
2000-10-20, 02:25:00,VALID,917.178,VALID,0.2,VALID,98.9588,VALID,-0.101885,VALID,18.8294,VALID,98,VALID,0,
2000-10-20, 02:26:00,VALID,917.165,VALID,0,VALID,98.9194,VALID,-0.0679233,VALID,18.8259,VALID,108,VALID,0,
2000-10-20, 02:27:00,VALID,917.146,VALID,0,VALID,98.8749,VALID,-0.0679233,VALID,18.8292,VALID,110,VALID,0,
2000-10-20, 02:28:00,VALID,917.139,VALID,0,VALID,98.8685,VALID,-0.101885,VALID,18.8389,VALID,74,VALID,0,
2000-10-20, 02:29:00,VALID,917.139,VALID,0,VALID,98.8494,VALID,-0.101885,VALID,18.8389,VALID,44,VALID,0,
2000-10-20, 02:30:00,VALID,917.137,VALID,0,VALID,98.8418,VALID,-0.101885,VALID,18.8518,VALID,86,VALID,0.228365,
2000-10-20, 02:31:00,VALID,917.118,VALID,0,VALID,98.796,VALID,-0.0849042,VALID,18.8319,VALID,77,VALID,1.23499,
2000-10-20, 02:32:00,VALID,917.127,VALID,0.2,VALID,98.7503,VALID,0,VALID,18.8439,VALID,51,VALID,0.348437,
2000-10-20, 02:33:00,VALID,917.135,VALID,0,VALID,98.7134,VALID,0,VALID,18.8404,VALID,37,VALID,0.0414063,
2000-10-20, 02:34:00,VALID,917.13,VALID,0,VALID,98.6803,VALID,0,VALID,18.8439,VALID,53,VALID,0.123598,
2000-10-20, 02:35:00,VALID,917.148,VALID,0,VALID,98.6676,VALID,0.0169808,VALID,18.8471,VALID,97,VALID,0.684827,
2000-10-20, 02:36:00,VALID,917.156,VALID,0,VALID,98.6396,VALID,0,VALID,18.8437,VALID,101,VALID,0.667578,
2000-10-20, 02:37:00,VALID,917.127,VALID,0,VALID,98.6295,VALID,0.0509425,VALID,18.8305,VALID,108,VALID,0.794336,
2000-10-20, 02:38:00,VALID,917.113,VALID,0,VALID,98.6333,VALID,0.0339617,VALID,18.8245,VALID,85,VALID,1.40845,
2000-10-20, 02:39:00,VALID,917.097,VALID,0,VALID,98.6295,VALID,0,VALID,18.8185,VALID,94,VALID,0.990954,
2000-10-20, 02:40:00,VALID,917.087,VALID,0.2,VALID,98.6193,VALID,0,VALID,18.8178,VALID,93,VALID,0.867188,
2000-10-20, 02:41:00,VALID,917.065,VALID,0,VALID,98.6028,VALID,0,VALID,18.8344,VALID,344,VALID,0.359375,
2000-10-20, 02:42:00,VALID,917.071,VALID,0,VALID,98.5722,VALID,0.0169808,VALID,18.8277,VALID,20,VALID,0.466747,
2000-10-20, 02:43:00,VALID,917.035,VALID,0,VALID,98.5201,VALID,0.0169808,VALID,18.828,VALID,109,VALID,0.486431,
2000-10-20, 02:44:00,VALID,917.038,VALID,0,VALID,98.5277,VALID,0.0169808,VALID,18.8471,VALID,64,VALID,0.0662109,
2000-10-20, 02:45:00,VALID,917.026,VALID,0,VALID,98.5036,VALID,0,VALID,18.8409,VALID,68,VALID,0.0720703,
2000-10-20, 02:46:00,VALID,917.011,VALID,0,VALID,98.4553,VALID,0,VALID,18.8247,VALID,115,VALID,0.436899,
2000-10-20, 02:47:00,VALID,916.985,VALID,0,VALID,98.3853,VALID,-0.0679233,VALID,18.825,VALID,51,VALID,0.372738,
2000-10-20, 02:48:00,VALID,916.98,VALID,0,VALID,98.2378,VALID,-0.0679233,VALID,18.8409,VALID,344,VALID,0.630859,
2000-10-20, 02:49:00,VALID,916.964,VALID,0,VALID,98.0407,VALID,-0.0509425,VALID,18.8568,VALID,324,VALID,0.207422,
2000-10-20, 02:50:00,VALID,916.948,VALID,0,VALID,97.939,VALID,-0.0679233,VALID,18.8734,VALID,51,VALID,0.291867,
2000-10-20, 02:51:00,VALID,916.924,VALID,0,VALID,97.897,VALID,-0.0679233,VALID,18.8764,VALID,106,VALID,0.898026,
2000-10-20, 02:52:00,VALID,916.897,VALID,0,VALID,97.9123,VALID,-0.0849042,VALID,18.8794,VALID,38,VALID,0.20332,
2000-10-20, 02:53:00,VALID,916.884,VALID,0.2,VALID,97.8881,VALID,-0.0509425,VALID,18.8831,VALID,328,VALID,0.0125,
2000-10-20, 02:54:00,VALID,916.879,VALID,0,VALID,97.9479,VALID,-0.0679233,VALID,18.8764,VALID,71,VALID,0.359575,
2000-10-20, 02:55:00,VALID,916.857,VALID,0,VALID,98.0216,VALID,-0.101885,VALID,18.8871,VALID,100,VALID,0.292352,
2000-10-20, 02:56:00,VALID,916.849,VALID,0,VALID,98.0255,VALID,-0.0849042,VALID,18.8707,VALID,318,VALID,0.0253906,
2000-10-20, 02:57:00,VALID,916.837,VALID,0,VALID,98.0051,VALID,-0.0679233,VALID,18.8578,VALID,357,VALID,0,
2000-10-20, 02:58:00,VALID,916.822,VALID,0,VALID,98.0458,VALID,-0.0339617,VALID,18.8737,VALID,358,VALID,0,
2000-10-20, 02:59:00,VALID,916.83,VALID,0,VALID,98.0916,VALID,-0.0509425,VALID,18.8734,VALID,358,VALID,0,
2000-10-20, 03:00:00,VALID,916.814,VALID,0,VALID,98.1526,VALID,-0.0849042,VALID,18.8737,VALID,360,VALID,0,
2000-10-20, 03:01:00,VALID,916.789,VALID,0.2,VALID,98.2073,VALID,-0.0169808,VALID,18.8568,VALID,360,VALID,0,
2000-10-20, 03:02:00,VALID,916.801,VALID,0,VALID,98.2276,VALID,0.0339617,VALID,18.8462,VALID,5,VALID,0,
2000-10-20, 03:03:00,VALID,916.795,VALID,0,VALID,98.2454,VALID,0.0849042,VALID,18.833,VALID,13,VALID,0,
2000-10-20, 03:04:00,VALID,916.79,VALID,0,VALID,98.2912,VALID,0.0339617,VALID,18.8298,VALID,14,VALID,0,
2000-10-20, 03:05:00,VALID,916.78,VALID,0,VALID,98.3332,VALID,0.0849042,VALID,18.8201,VALID,355,VALID,0,
2000-10-20, 03:06:00,VALID,916.777,VALID,0,VALID,98.3853,VALID,0.0509425,VALID,18.8139,VALID,298,VALID,0,
2000-10-20, 03:07:00,VALID,916.771,VALID,0,VALID,98.412,VALID,0.0849042,VALID,18.8074,VALID,298,VALID,0,
2000-10-20, 03:08:00,VALID,916.775,VALID,0,VALID,98.4553,VALID,0.0169808,VALID,18.8076,VALID,298,VALID,0,
2000-10-20, 03:09:00,VALID,916.764,VALID,0,VALID,98.4642,VALID,0.0849042,VALID,18.7915,VALID,79,VALID,0.386328,
2000-10-20, 03:10:00,VALID,916.752,VALID,0,VALID,98.4603,VALID,0.0679233,VALID,18.7786,VALID,111,VALID,0.599159,
2000-10-20, 03:11:00,VALID,916.739,VALID,0,VALID,98.5125,VALID,0.101885,VALID,18.7744,VALID,94,VALID,0.346423,
2000-10-20, 03:12:00,VALID,916.744,VALID,0.2,VALID,98.5939,VALID,0.0679233,VALID,18.8035,VALID,93,VALID,0.508984,
2000-10-20, 03:13:00,VALID,916.718,VALID,0,VALID,98.6167,VALID,0.0679233,VALID,18.8136,VALID,85,VALID,0.901953,
2000-10-20, 03:14:00,VALID,916.693,VALID,0,VALID,98.6104,VALID,0.0849042,VALID,18.8039,VALID,54,VALID,0.455329,
2000-10-20, 03:15:00,VALID,916.704,VALID,0,VALID,98.6282,VALID,0.0509425,VALID,18.8169,VALID,264,VALID,0.0503701,
2000-10-20, 03:16:00,VALID,916.705,VALID,0,VALID,98.6536,VALID,0.0339617,VALID,18.8206,VALID,263,VALID,0.0519531,
2000-10-20, 03:17:00,VALID,916.704,VALID,0,VALID,98.6435,VALID,-0.0339617,VALID,18.8287,VALID,278,VALID,0,
2000-10-20, 03:18:00,VALID,916.715,VALID,0,VALID,98.6587,VALID,-0.0679233,VALID,18.8218,VALID,268,VALID,0.198718,
2000-10-20, 03:19:00,VALID,916.698,VALID,0,VALID,98.6498,VALID,-0.0169808,VALID,18.8056,VALID,315,VALID,0.235197,
2000-10-20, 03:20:00,VALID,916.693,VALID,0,VALID,98.693,VALID,-0.0509425,VALID,18.8151,VALID,90,VALID,0,
2000-10-20, 03:21:00,VALID,916.699,VALID,0,VALID,98.7236,VALID,-0.0509425,VALID,18.8123,VALID,102,VALID,0.470703,
2000-10-20, 03:22:00,VALID,916.699,VALID,0,VALID,98.7515,VALID,-0.0509425,VALID,18.8188,VALID,312,VALID,0.275441,
2000-10-20, 03:23:00,VALID,916.702,VALID,0,VALID,98.7528,VALID,-0.0509425,VALID,18.8024,VALID,319,VALID,0.67722,
2000-10-20, 03:24:00,VALID,916.678,VALID,0,VALID,98.7579,VALID,-0.0509425,VALID,18.8024,VALID,23,VALID,0.808594,
2000-10-20, 03:25:00,VALID,916.692,VALID,0,VALID,98.7859,VALID,-0.0339617,VALID,18.8091,VALID,33,VALID,0.0859375,
2000-10-20, 03:26:00,VALID,916.696,VALID,0.2,VALID,98.8215,VALID,-0.0339617,VALID,18.8054,VALID,82,VALID,0.184295,
2000-10-20, 03:27:00,VALID,916.707,VALID,0,VALID,98.8673,VALID,-0.0509425,VALID,18.8252,VALID,29,VALID,0.534745,
2000-10-20, 03:28:00,VALID,916.702,VALID,0,VALID,98.8812,VALID,-0.0509425,VALID,18.8185,VALID,278,VALID,0.271875,
2000-10-20, 03:29:00,VALID,916.698,VALID,0.2,VALID,98.8825,VALID,-0.0679233,VALID,18.8088,VALID,346,VALID,0.302344,
2000-10-20, 03:30:00,VALID,916.702,VALID,0,VALID,98.9054,VALID,-0.0849042,VALID,18.7994,VALID,119,VALID,1.10156,
2000-10-20, 03:31:00,VALID,916.69,VALID,0,VALID,98.9601,VALID,-0.0169808,VALID,18.8019,VALID,92,VALID,1.00062,
2000-10-20, 03:32:00,VALID,916.697,VALID,0,VALID,98.9715,VALID,-0.0679233,VALID,18.8188,VALID,71,VALID,0.829102,
2000-10-20, 03:33:00,VALID,916.651,VALID,0,VALID,98.9804,VALID,-0.0849042,VALID,18.8158,VALID,88,VALID,0.970312,
2000-10-20, 03:34:00,VALID,916.674,VALID,0,VALID,99.0059,VALID,-0.0849042,VALID,18.8121,VALID,358,VALID,0.558494,
2000-10-20, 03:35:00,VALID,916.687,VALID,0,VALID,98.9995,VALID,-0.0679233,VALID,18.8289,VALID,340,VALID,0.579564,